AKDT,Max TemperatureF,Mean TemperatureF,Min TemperatureF,Max Dew PointF,MeanDew PointF,Min DewpointF,Max Humidity, Mean Humidity, Min Humidity, Max Sea Level PressureIn, Mean Sea Level PressureIn, Min Sea Level PressureIn, Max VisibilityMiles, Mean VisibilityMiles, Min VisibilityMiles, Max Wind SpeedMPH, Mean Wind SpeedMPH, Max Gust SpeedMPH,PrecipitationIn, CloudCover, Events, WindDirDegrees
2013-4-1,17,5,-7,13,3,-9,0,0,0,30.25,30.19,30.12,10,8,1,10,3,13,0.00,5,,87
2013-4-2,29,13,-3,19,9,-5,0,0,0,30.17,30.15,30.13,10,10,10,12,2,14,0.00,4,,63
2013-4-3,29,26,22,23,18,12,0,0,0,30.29,30.22,30.14,10,9,2,22,15,26,T,6,Snow,55
2013-4-4,31,25,19,20,12,6,0,0,0,30.31,30.24,30.12,10,10,10,18,12,23,0.00,5,,45
2013-4-5,25,17,9,11,5,-1,0,0,0,30.12,30.07,29.98,10,10,10,28,15,35,0.00,2,,31
2013-4-6,10,6,1,-3,-7,-10,0,0,0,30.05,30.01,29.98,10,10,10,31,11,38,0.00,2,Snow,360
2013-4-7,9,5,0,-2,-6,-9,0,0,0,30.05,30.03,30.00,10,10,10,22,13,25,0.00,4,,327
2013-4-8,10,2,-6,-3,-9,-13,0,0,0,30.04,30.00,29.89,10,10,10,16,7,20,0.00,3,,325
2013-4-9,8,2,-4,-4,-8,-11,0,0,0,29.88,29.68,29.59,10,10,10,25,15,31,0.00,5,,321
2013-4-10,10,3,-5,-1,-7,-12,0,0,0,30.04,29.80,29.64,10,10,10,22,7,26,0.00,5,,350
2013-4-11,15,4,-8,3,-4,-13,0,0,0,30.40,30.26,30.06,10,10,10,10,2,10,0.00,3,,266
2013-4-12,16,4,-8,13,2,-11,0,0,0,30.48,30.44,30.41,10,8,3,9,2,12,0.01,4,Snow,117
2013-4-13,30,23,16,27,20,12,0,0,0,30.44,30.39,30.35,10,4,1,16,8,20,0.24,8,Snow,178
2013-4-14,28,16,3,27,17,2,0,0,0,30.82,30.62,30.46,10,9,4,20,5,24,T,5,Snow,276
2013-4-15,21,8,-6,10,0,-10,0,0,0,30.83,30.77,30.66,10,10,10,6,1,7,0.00,0,,329
2013-4-16,23,8,-7,5,-3,-13,0,0,0,30.64,30.54,30.46,10,10,10,5,1,7,0.00,1,,308
2013-4-17,31,13,-5,14,4,-9,0,0,0,30.53,30.50,30.46,10,10,10,14,5,17,0.00,1,,36
2013-4-18,36,26,15,17,10,4,0,0,0,30.52,30.51,30.49,10,10,10,12,4,13,0.00,4,,27
2013-4-19,31,19,7,14,8,3,0,0,0,30.58,30.53,30.45,10,10,10,7,1,7,0.00,4,,283
2013-4-20,32,21,10,21,13,6,0,0,0,30.49,30.45,30.41,10,10,10,5,0,7,0.00,3,,261
2013-4-21,28,18,7,18,12,3,0,0,0,30.51,30.49,30.45,10,10,10,7,1,8,0.00,1,,247
2013-4-22,26,20,13,23,18,10,0,0,0,30.47,30.44,30.42,10,9,0,13,6,14,0.00,7,Fog,132
2013-4-23,27,26,25,26,24,23,0,0,0,30.46,30.43,30.39,10,10,5,10,5,14,T,8,Snow,242
2013-4-24,38,32,26,29,27,23,0,0,0,30.43,30.35,30.32,10,4,0,17,7,20,0.04,7,Fog-Snow,253
2013-4-25,28,22,15,25,19,12,0,0,0,30.45,30.36,30.18,10,10,10,10,4,12,0.00,4,,247
2013-4-26,37,30,22,30,24,15,0,0,0,30.17,30.03,29.97,10,10,9,28,13,35,T,6,,303
2013-4-27,35,28,20,22,17,13,0,0,0,30.41,30.31,30.11,10,10,10,25,11,32,0.00,3,,341
2013-4-28,28,22,15,25,18,12,0,0,0,30.43,30.40,30.32,10,10,7,17,6,21,0.00,5,,282
2013-4-29,231,127,22,25,23,15,0,0,0,30.32,30.25,30.22,10,9,4,16,5,20,0.01,8,Snow,283
2013-4-30,29,24,18,18,13,9,0,0,0,30.27,30.20,30.09,10,10,10,20,7,23,0.00,2,,356